{"data":{"norad_id":63932,"intl_designator":"2025-098G","name":"STARLINK-33971","alt_names":[],"object_type":"PAYLOAD","status":"ACTIVE","operator":null,"country":"US","launch_date":"2025-05-13","launch_site_code":"AFWTR","launch_vehicle":null,"mission":null,"orbit_class":"UNKNOWN","rcs_meters":null,"size_class":null,"mass_kg":null,"dimensions":null,"purposes":["comms"],"wikipedia_slug":null,"has_3d_model":false,"image_url":null,"decayed_at":null,"tle_current":{"epoch":"2026-09-20T09:46:18.388128Z","epoch_age_seconds":155113,"freshness":"FRESH","line1":"1 63932U 25098G   26263.40715727  .00015241  00000+0  53324-3 0  9991","line2":"2 63932  70.0001 141.3430 0003162 272.0805  88.0008 15.29598062 75794","mean_motion":15.29598062,"eccentricity":0.0003162,"inclination_deg":70.0001,"raan_deg":141.343,"arg_perigee_deg":272.0805,"mean_anomaly_deg":88.0008,"bstar":0.00053324,"rev_number":7579,"period_min":94.142378692423,"perigee_km":474.84533874922,"apogee_km":479.18053556948,"semimajor_km":6855.1499371593,"source":"CELESTRAK","updated_at":"2026-09-21T09:00:35.149979Z"}}}